Time,TemperatureF,DewpointF,PressureIn,WindDirection,WindDirectionDegrees,WindSpeedMPH,WindSpeedGustMPH,Humidity,HourlyPrecipIn,Conditions,Clouds,dailyrainin,SolarRadiationWatts/m^2,SoftwareType,DateUTC
2013-09-15 00:05:00,52.3,47.0,30.07,West,259,0.0,0.0,83,0.00,,,0.00,0,weatherlink.com 1.10,2013-09-15 04:05:00,
2013-09-15 00:20:00,52.3,47.0,30.07,West,259,0.0,0.0,83,0.00,,,0.00,0,weatherlink.com 1.10,2013-09-15 04:20:00,
2013-09-15 00:35:00,52.3,47.0,30.07,West,259,0.0,0.0,83,0.00,,,0.00,0,weatherlink.com 1.10,2013-09-15 04:35:00,
2013-09-15 00:50:00,52.1,47.0,30.07,West,259,0.0,0.0,83,0.00,,,0.00,0,weatherlink.com 1.10,2013-09-15 04:50:00,
2013-09-15 01:06:00,51.9,47.0,30.07,West,259,0.0,0.0,83,0.00,,,0.00,0,weatherlink.com 1.10,2013-09-15 05:06:00,
2013-09-15 01:21:00,51.8,47.0,30.07,West,259,0.0,0.0,83,0.00,,,0.00,0,weatherlink.com 1.10,2013-09-15 05:21:00,
2013-09-15 01:36:00,51.8,47.0,30.06,West,259,0.0,0.0,84,0.00,,,0.00,0,weatherlink.com 1.10,2013-09-15 05:36:00,
2013-09-15 01:51:00,51.8,47.0,30.06,West,259,0.0,0.0,84,0.00,,,0.00,0,weatherlink.com 1.10,2013-09-15 05:51:00,
2013-09-15 02:06:00,51.8,47.0,30.05,West,259,0.0,0.0,84,0.00,,,0.00,0,weatherlink.com 1.10,2013-09-15 06:06:00,
2013-09-15 02:21:00,51.7,47.0,30.05,West,259,0.0,0.0,84,0.00,,,0.00,0,weatherlink.com 1.10,2013-09-15 06:21:00,
2013-09-15 02:36:00,51.5,47.0,30.05,West,259,0.0,0.0,84,0.00,,,0.00,0,weatherlink.com 1.10,2013-09-15 06:36:00,
2013-09-15 02:51:00,51.5,47.0,30.05,West,259,0.0,0.0,84,0.00,,,0.00,0,weatherlink.com 1.10,2013-09-15 06:51:00,
2013-09-15 03:06:00,51.7,47.0,30.05,West,259,0.0,0.0,84,0.00,,,0.00,0,weatherlink.com 1.10,2013-09-15 07:06:00,
2013-09-15 03:21:00,51.9,47.0,30.05,West,259,0.0,0.0,83,0.00,,,0.00,0,weatherlink.com 1.10,2013-09-15 07:21:00,
2013-09-15 03:36:00,52.3,47.0,30.05,West,259,0.0,0.0,81,0.00,,,0.00,0,weatherlink.com 1.10,2013-09-15 07:36:00,
2013-09-15 03:51:00,52.9,46.0,30.05,West,259,0.0,1.0,77,0.00,,,0.00,0,weatherlink.com 1.10,2013-09-15 07:51:00,
2013-09-15 04:06:00,53.3,46.0,30.05,West,259,0.0,0.0,75,0.00,,,0.00,0,weatherlink.com 1.10,2013-09-15 08:06:00,
2013-09-15 04:21:00,54.0,45.0,30.05,West,259,0.0,2.0,71,0.00,,,0.00,0,weatherlink.com 1.10,2013-09-15 08:21:00,
2013-09-15 04:36:00,54.7,44.0,30.06,West,259,0.0,0.0,68,0.00,,,0.00,0,weatherlink.com 1.10,2013-09-15 08:36:00,
2013-09-15 04:51:00,55.1,44.0,30.06,West,259,0.0,0.0,67,0.00,,,0.00,0,weatherlink.com 1.10,2013-09-15 08:51:00,
2013-09-15 05:06:00,55.4,44.0,30.06,West,259,0.0,1.0,66,0.00,,,0.00,0,weatherlink.com 1.10,2013-09-15 09:06:00,
2013-09-15 05:21:00,55.5,44.0,30.06,West,259,0.0,0.0,66,0.00,,,0.00,0,weatherlink.com 1.10,2013-09-15 09:21:00,
2013-09-15 05:36:00,55.6,44.0,30.06,West,259,0.0,0.0,65,0.00,,,0.00,0,weatherlink.com 1.10,2013-09-15 09:36:00,
2013-09-15 05:51:00,55.6,44.0,30.07,West,259,0.0,1.0,65,0.00,,,0.00,0,weatherlink.com 1.10,2013-09-15 09:51:00,
2013-09-15 06:06:00,55.4,44.0,30.07,West,259,0.0,2.0,65,0.00,,,0.00,0,weatherlink.com 1.10,2013-09-15 10:06:00,
2013-09-15 06:21:00,55.2,44.0,30.07,West,259,0.0,0.0,66,0.00,,,0.00,0,weatherlink.com 1.10,2013-09-15 10:21:00,
2013-09-15 06:36:00,55.0,44.0,30.07,West,259,0.0,0.0,66,0.00,,,0.00,0,weatherlink.com 1.10,2013-09-15 10:36:00,
2013-09-15 06:51:00,54.9,43.0,30.08,West,259,0.0,0.0,65,0.00,,,0.00,0,weatherlink.com 1.10,2013-09-15 10:51:00,
2013-09-15 07:06:00,54.9,44.0,30.07,West,259,0.0,0.0,66,0.00,,,0.00,0,weatherlink.com 1.10,2013-09-15 11:06:00,
2013-09-15 07:21:00,54.9,44.0,30.07,West,259,0.0,0.0,66,0.00,,,0.00,0,weatherlink.com 1.10,2013-09-15 11:21:00,
2013-09-15 07:36:00,54.9,44.0,30.06,West,259,0.0,0.0,67,0.00,,,0.00,0,weatherlink.com 1.10,2013-09-15 11:36:00,
2013-09-15 07:51:00,55.0,44.0,30.05,West,259,0.0,2.0,67,0.00,,,0.00,9,weatherlink.com 1.10,2013-09-15 11:51:00,
2013-09-15 08:06:00,55.1,44.0,30.05,West,259,0.0,0.0,66,0.00,,,0.00,0,weatherlink.com 1.10,2013-09-15 12:06:00,
2013-09-15 08:21:00,55.4,45.0,30.05,South,186,0.0,3.0,68,0.00,,,0.00,11,weatherlink.com 1.10,2013-09-15 12:21:00,
2013-09-15 08:36:00,55.5,47.0,30.05,South,191,0.0,3.0,72,0.00,,,0.00,23,weatherlink.com 1.10,2013-09-15 12:36:00,
2013-09-15 08:51:00,55.4,48.0,30.05,South,191,0.0,0.0,76,0.00,,,0.00,30,weatherlink.com 1.10,2013-09-15 12:51:00,
2013-09-15 09:06:00,55.1,48.0,30.04,South,191,0.0,2.0,77,0.00,,,0.00,49,weatherlink.com 1.10,2013-09-15 13:06:00,
2013-09-15 09:21:00,55.1,48.0,30.04,South,190,0.0,0.0,78,0.00,,,0.00,83,weatherlink.com 1.10,2013-09-15 13:21:00,
2013-09-15 09:36:00,55.3,49.0,30.05,SSW,198,0.0,4.0,78,0.00,,,0.00,58,weatherlink.com 1.10,2013-09-15 13:36:00,
2013-09-15 09:51:00,55.5,48.0,30.05,South,191,0.0,1.0,77,0.00,,,0.00,116,weatherlink.com 1.10,2013-09-15 13:51:00,
2013-09-15 10:06:00,56.1,48.0,30.06,WSW,245,0.0,6.0,75,0.00,,,0.00,83,weatherlink.com 1.10,2013-09-15 14:06:00,
2013-09-15 10:21:00,56.7,49.0,30.05,WSW,257,0.0,5.0,75,0.00,,,0.00,97,weatherlink.com 1.10,2013-09-15 14:21:00,
2013-09-15 10:36:00,57.2,50.0,30.05,WSW,254,0.0,5.0,76,0.00,,,0.00,137,weatherlink.com 1.10,2013-09-15 14:36:00,
2013-09-15 10:51:00,57.8,49.0,30.05,WSW,248,2.0,6.0,73,0.00,,,0.00,130,weatherlink.com 1.10,2013-09-15 14:51:00,
2013-09-15 11:06:00,58.2,50.0,30.06,West,261,0.0,7.0,74,0.00,,,0.00,127,weatherlink.com 1.10,2013-09-15 15:06:00,
2013-09-15 11:21:00,58.6,50.0,30.05,WSW,254,0.0,5.0,73,0.00,,,0.00,88,weatherlink.com 1.10,2013-09-15 15:21:00,
2013-09-15 11:36:00,58.8,51.0,30.05,West,264,0.0,5.0,74,0.00,,,0.00,114,weatherlink.com 1.10,2013-09-15 15:36:00,
2013-09-15 11:52:00,59.0,51.0,30.06,West,264,2.0,4.0,75,0.00,,,0.00,107,weatherlink.com 1.10,2013-09-15 15:52:00,
2013-09-15 12:07:00,59.0,52.0,30.06,West,264,2.0,3.0,77,0.00,,,0.00,62,weatherlink.com 1.10,2013-09-15 16:07:00,
2013-09-15 12:22:00,59.0,53.0,30.07,SW,225,2.0,8.0,79,0.00,,,0.00,74,weatherlink.com 1.10,2013-09-15 16:22:00,
2013-09-15 12:37:00,58.9,53.0,30.07,WSW,240,4.0,8.0,80,0.00,,,0.00,120,weatherlink.com 1.10,2013-09-15 16:37:00,
2013-09-15 12:52:00,58.5,53.0,30.07,WSW,252,2.0,7.0,82,0.00,,,0.00,121,weatherlink.com 1.10,2013-09-15 16:52:00,
2013-09-15 13:07:00,58.6,54.0,30.06,WSW,252,0.0,3.0,83,0.00,,,0.00,104,weatherlink.com 1.10,2013-09-15 17:07:00,
2013-09-15 13:22:00,58.8,54.0,30.06,WSW,252,0.0,3.0,83,0.00,,,0.00,88,weatherlink.com 1.10,2013-09-15 17:22:00,
2013-09-15 13:37:00,59.0,55.0,30.06,WSW,252,1.0,2.0,86,0.00,,,0.00,79,weatherlink.com 1.10,2013-09-15 17:37:00,
2013-09-15 13:52:00,59.0,54.0,30.06,WSW,252,0.0,3.0,84,0.00,,,0.00,70,weatherlink.com 1.10,2013-09-15 17:52:00,
2013-09-15 14:07:00,59.0,55.0,30.07,WSW,252,2.0,2.0,85,0.00,,,0.00,58,weatherlink.com 1.10,2013-09-15 18:07:00,
2013-09-15 14:22:00,59.0,55.0,30.06,WSW,252,0.0,0.0,85,0.00,,,0.00,58,weatherlink.com 1.10,2013-09-15 18:22:00,
2013-09-15 14:37:00,59.0,55.0,30.06,WSW,252,0.0,0.0,86,0.00,,,0.00,54,weatherlink.com 1.10,2013-09-15 18:37:00,
2013-09-15 14:52:00,59.0,55.0,30.06,WSW,252,0.0,3.0,86,0.00,,,0.00,76,weatherlink.com 1.10,2013-09-15 18:52:00,
2013-09-15 15:07:00,59.0,55.0,30.06,WSW,252,0.0,0.0,86,0.00,,,0.00,58,weatherlink.com 1.10,2013-09-15 19:07:00,
2013-09-15 15:22:00,59.0,55.0,30.05,WSW,252,0.0,0.0,86,0.00,,,0.00,56,weatherlink.com 1.10,2013-09-15 19:22:00,
2013-09-15 15:37:00,59.0,55.0,30.05,WSW,252,0.0,0.0,87,0.00,,,0.00,33,weatherlink.com 1.10,2013-09-15 19:37:00,
2013-09-15 15:52:00,59.0,55.0,30.06,WSW,252,0.0,0.0,87,0.00,,,0.00,51,weatherlink.com 1.10,2013-09-15 19:52:00,
2013-09-15 16:07:00,59.0,55.0,30.05,WSW,252,0.0,0.0,87,0.00,,,0.00,69,weatherlink.com 1.10,2013-09-15 20:07:00,
2013-09-15 16:22:00,59.0,55.0,30.06,WSW,252,0.0,0.0,86,0.00,,,0.00,51,weatherlink.com 1.10,2013-09-15 20:22:00,
2013-09-15 16:37:00,58.7,55.0,30.06,WSW,252,0.0,1.0,86,0.00,,,0.00,40,weatherlink.com 1.10,2013-09-15 20:37:00,
2013-09-15 16:52:00,59.0,56.0,30.06,WSW,252,0.0,0.0,89,0.00,,,0.00,42,weatherlink.com 1.10,2013-09-15 20:52:00,
2013-09-15 17:07:00,59.0,56.0,30.05,WSW,252,0.0,1.0,88,0.02,,,0.02,58,weatherlink.com 1.10,2013-09-15 21:07:00,
2013-09-15 17:22:00,59.0,56.0,30.06,WSW,252,0.0,0.0,88,0.03,,,0.03,39,weatherlink.com 1.10,2013-09-15 21:22:00,
2013-09-15 17:37:00,58.6,55.0,30.06,WSW,252,2.0,3.0,88,0.04,,,0.04,14,weatherlink.com 1.10,2013-09-15 21:37:00,
2013-09-15 17:52:00,58.0,55.0,30.07,WSW,252,0.0,0.0,88,0.04,,,0.04,26,weatherlink.com 1.10,2013-09-15 21:52:00,
2013-09-15 18:07:00,57.9,54.0,30.07,WSW,252,0.0,0.0,88,0.02,,,0.04,16,weatherlink.com 1.10,2013-09-15 22:07:00,
2013-09-15 18:22:00,57.8,54.0,30.07,WSW,252,0.0,0.0,88,0.01,,,0.04,16,weatherlink.com 1.10,2013-09-15 22:22:00,
2013-09-15 18:37:00,57.8,55.0,30.07,WSW,252,0.0,0.0,89,0.00,,,0.04,21,weatherlink.com 1.10,2013-09-15 22:37:00,
2013-09-15 18:52:00,57.8,55.0,30.07,WSW,252,0.0,0.0,89,0.00,,,0.04,30,weatherlink.com 1.10,2013-09-15 22:52:00,
2013-09-15 19:07:00,57.8,55.0,30.08,WSW,252,0.0,0.0,89,0.00,,,0.04,12,weatherlink.com 1.10,2013-09-15 23:07:00,
2013-09-15 19:22:00,57.7,55.0,30.09,WSW,252,0.0,0.0,90,0.00,,,0.04,5,weatherlink.com 1.10,2013-09-15 23:22:00,
2013-09-15 19:37:00,57.6,55.0,30.09,WSW,252,0.0,0.0,90,0.00,,,0.04,0,weatherlink.com 1.10,2013-09-15 23:37:00,
2013-09-15 19:52:00,57.5,55.0,30.09,WSW,252,0.0,0.0,90,0.00,,,0.04,0,weatherlink.com 1.10,2013-09-15 23:52:00,
2013-09-15 20:07:00,57.3,55.0,30.09,WSW,252,0.0,0.0,90,0.00,,,0.04,0,weatherlink.com 1.10,2013-09-16 00:07:00,
2013-09-15 20:22:00,57.3,55.0,30.10,WSW,252,0.0,0.0,90,0.00,,,0.04,0,weatherlink.com 1.10,2013-09-16 00:22:00,
2013-09-15 20:37:00,57.3,55.0,30.11,WSW,252,0.0,3.0,90,0.00,,,0.04,0,weatherlink.com 1.10,2013-09-16 00:37:00,
2013-09-15 20:52:00,56.9,54.0,30.11,WSW,252,0.0,0.0,90,0.00,,,0.04,0,weatherlink.com 1.10,2013-09-16 00:52:00,
2013-09-15 21:07:00,56.7,54.0,30.12,WSW,252,0.0,0.0,90,0.00,,,0.04,0,weatherlink.com 1.10,2013-09-16 01:07:00,
2013-09-15 21:22:00,56.6,54.0,30.12,WSW,252,0.0,0.0,90,0.00,,,0.04,0,weatherlink.com 1.10,2013-09-16 01:22:00,
2013-09-15 21:37:00,56.5,54.0,30.13,WSW,252,0.0,0.0,90,0.00,,,0.04,0,weatherlink.com 1.10,2013-09-16 01:37:00,
2013-09-15 21:52:00,56.4,54.0,30.13,WSW,252,0.0,0.0,90,0.00,,,0.04,0,weatherlink.com 1.10,2013-09-16 01:52:00,
2013-09-15 22:07:00,56.4,54.0,30.13,WSW,252,0.0,1.0,90,0.00,,,0.04,0,weatherlink.com 1.10,2013-09-16 02:07:00,
2013-09-15 22:22:00,56.4,54.0,30.14,WSW,252,0.0,0.0,90,0.00,,,0.04,0,weatherlink.com 1.10,2013-09-16 02:22:00,
2013-09-15 22:37:00,56.3,54.0,30.13,WSW,252,0.0,0.0,90,0.00,,,0.04,0,weatherlink.com 1.10,2013-09-16 02:37:00,
2013-09-15 22:52:00,56.4,54.0,30.14,WSW,252,0.0,0.0,91,0.00,,,0.04,0,weatherlink.com 1.10,2013-09-16 02:52:00,
2013-09-15 23:07:00,56.4,54.0,30.14,WSW,252,0.0,0.0,91,0.00,,,0.04,0,weatherlink.com 1.10,2013-09-16 03:07:00,
2013-09-15 23:22:00,56.5,54.0,30.14,WSW,252,0.0,0.0,91,0.00,,,0.04,0,weatherlink.com 1.10,2013-09-16 03:22:00,
2013-09-15 23:37:00,56.5,54.0,30.15,WSW,252,0.0,1.0,91,0.00,,,0.04,0,weatherlink.com 1.10,2013-09-16 03:37:00,
2013-09-15 23:52:00,56.5,54.0,30.15,WSW,252,0.0,0.0,91,0.00,,,0.04,0,weatherlink.com 1.10,2013-09-16 03:52:00,